Bellefontaine, OH

8:22 AM EST on December 11, 2016 (GMT -0500)
Bellefontaine

Weather History for KEDJ - January, 2014

Change the Weather History Date:

Sunday, January 19, 2014

  Actual Average (KDAY) Record (KDAY)
Temperature  
Mean Temperature 24 °F -  
Max Temperature 32 °F 35 °F 68 °F (1907)
Min Temperature 17 °F 20 °F -25 °F (1994)
Degree Days  
Heating Degree Days 40    
Moisture  
Dew Point 20 °F    
Average Humidity 83    
Maximum Humidity 100    
Minimum Humidity 69    
Precipitation  
Precipitation 0.00 in - - ()
Sea Level Pressure  
Sea Level Pressure 29.73 in    
Wind  
Wind Speed 12 mph (SW)    
Max Wind Speed 25 mph    
Max Gust Speed 32 mph    
Visibility 9 miles    
Events      
Averages and records for this station are not official NWS values.
T = Trace of Precipitation, MM = Missing Value Source: NWS Daily Summary

Daily Weather History Graph

Daily Weather History Graph

Search for Another Location

Airport or City:

Trip Planner

Search our weather history database for the weather conditions in past years. The results will help you decide how hot, cold, wet, or windy it might be!

Date:

Astronomy

Jan. 19, 2014 Rise Set
Actual Time 7:54 AM EST 5:38 PM EST
Civil Twilight 7:24 AM EST 6:07 PM EST
Nautical Twilight 6:51 AM EST 6:41 PM EST
Astronomical Twilight 6:18 AM EST 7:13 PM EST
Moon 9:15 PM EST (1/19) 9:23 AM EST (1/19)
Length of Visible Light 10h 43m
Length of Day
9h 43m
Waning Gibbous, 89% of the Moon is Illuminated
Jan 19
Waning Gibbous
Jan 24
Last Quarter
Jan 30
New
Feb 6
First Quarter
Feb 14
Full

Hourly Weather History & Observations

Time (EST) Temp. Windchill Dew Point Humidity Pressure Visibility Wind Dir Wind Speed Gust Speed Precip Events Conditions
12:10 AM 21.2 °F 11.7 °F 19.4 °F 93% 29.72 in 6.0 mi SSE 8.1 mph - 0.00 in   Mostly Cloudy
12:30 AM 21.2 °F 10.9 °F 21.2 °F 100% 29.71 in 10.0 mi SSE 9.2 mph - 0.00 in   Overcast
12:50 AM 23.0 °F 13.9 °F 21.2 °F 93% 29.70 in 10.0 mi SSE 8.1 mph - 0.00 in   Overcast
1:10 AM 23.0 °F 12.4 °F 21.2 °F 93% 29.70 in 10.0 mi SE 10.4 mph - 0.00 in   Mostly Cloudy
1:30 AM 23.0 °F 14.7 °F 21.2 °F 93% 29.70 in 10.0 mi SSE 6.9 mph - 0.00 in   Mostly Cloudy
1:50 AM 23.0 °F 13.1 °F 21.2 °F 93% 29.70 in 10.0 mi SSE 9.2 mph - 0.00 in   Overcast
2:10 AM 23.0 °F 14.7 °F 21.2 °F 93% 29.71 in 4.0 mi SSE 6.9 mph - 0.00 in   Mostly Cloudy
2:30 AM 23.0 °F 17.0 °F 21.2 °F 93% 29.71 in 7.0 mi SSE 4.6 mph - 0.00 in   Mostly Cloudy
2:50 AM 23.0 °F 18.4 °F 21.2 °F 93% 29.72 in 10.0 mi South 3.5 mph - 0.00 in   Mostly Cloudy
3:10 AM 23.0 °F 17.0 °F 21.2 °F 93% 29.73 in 10.0 mi SSW 4.6 mph - 0.00 in   Overcast
3:30 AM 23.0 °F 17.0 °F 21.2 °F 93% 29.73 in 10.0 mi SSW 4.6 mph - 0.00 in   Overcast
3:50 AM 23.0 °F 18.4 °F 21.2 °F 93% 29.73 in 10.0 mi SW 3.5 mph - 0.00 in   Overcast
4:10 AM 23.0 °F 17.0 °F 21.2 °F 93% 29.73 in 10.0 mi WSW 4.6 mph - 0.00 in   Overcast
4:30 AM 21.2 °F 13.6 °F 21.2 °F 100% 29.73 in 10.0 mi West 5.8 mph - 0.00 in   Overcast
4:50 AM 21.2 °F 13.6 °F 21.2 °F 100% 29.74 in 10.0 mi West 5.8 mph - 0.00 in   Mostly Cloudy
5:10 AM 19.4 °F 12.8 °F 19.4 °F 100% 29.74 in 7.0 mi West 4.6 mph - 0.00 in   Mostly Cloudy
5:30 AM 21.2 °F 11.7 °F 21.2 °F 100% 29.75 in 9.0 mi West 8.1 mph - 0.00 in   Overcast
5:50 AM 21.2 °F 10.9 °F 21.2 °F 100% 29.76 in 7.0 mi West 9.2 mph - 0.00 in   Overcast
6:10 AM 21.2 °F 11.7 °F 21.2 °F 100% 29.77 in 5.0 mi West 8.1 mph - 0.00 in   Overcast
6:30 AM 21.2 °F 11.7 °F 19.4 °F 93% 29.79 in 5.0 mi West 8.1 mph - 0.00 in   Mostly Cloudy
6:50 AM 19.4 °F 10.4 °F 17.6 °F 93% 29.79 in 4.0 mi West 6.9 mph - 0.00 in   Mostly Cloudy
7:10 AM 17.6 °F 8.2 °F 17.6 °F 100% 29.80 in 4.0 mi West 6.9 mph - 0.00 in   Mostly Cloudy
7:30 AM 19.4 °F 10.4 °F 17.6 °F 93% 29.80 in 5.0 mi WSW 6.9 mph - 0.00 in   Overcast
7:50 AM 19.4 °F 8.6 °F 19.4 °F 100% 29.81 in 6.0 mi WSW 9.2 mph - 0.00 in   Overcast
8:10 AM 19.4 °F 7.2 °F 19.4 °F 100% 29.82 in 8.0 mi West 11.5 mph - 0.00 in   Overcast
8:30 AM 21.2 °F 7.3 °F 19.4 °F 93% 29.81 in 9.0 mi West 16.1 mph - 0.00 in   Overcast
8:50 AM 21.2 °F 8.9 °F 17.6 °F 86% 29.82 in 8.0 mi West 12.7 mph - 0.00 in   Overcast
9:10 AM 21.2 °F 8.3 °F 17.6 °F 86% 29.82 in 7.0 mi WSW 13.8 mph - 0.00 in   Overcast
9:30 AM 21.2 °F 7.3 °F 17.6 °F 86% 29.82 in 8.0 mi WSW 16.1 mph - 0.00 in   Overcast
9:50 AM 21.2 °F 7.3 °F 17.6 °F 86% 29.83 in 5.0 mi WSW 16.1 mph 21.9 mph 0.00 in   Overcast
10:10 AM 21.2 °F 6.8 °F 17.6 °F 86% 29.83 in 7.0 mi WSW 17.3 mph - 0.00 in   Overcast
10:30 AM 21.2 °F 8.3 °F 17.6 °F 86% 29.83 in 10.0 mi SW 13.8 mph 21.9 mph 0.00 in   Overcast
10:50 AM 21.2 °F 7.3 °F 17.6 °F 86% 29.84 in 10.0 mi SW 16.1 mph - 0.00 in   Mostly Cloudy
11:10 AM 21.2 °F 5.6 °F 17.6 °F 86% 29.83 in 10.0 mi SW 20.7 mph - 0.00 in   Mostly Cloudy
11:30 AM 21.2 °F 5.2 °F 17.6 °F 86% 29.83 in 10.0 mi SW 21.9 mph - 0.00 in   Mostly Cloudy
11:50 AM 21.2 °F 6.0 °F 17.6 °F 86% 29.82 in 10.0 mi SW 19.6 mph 26.5 mph 0.00 in   Scattered Clouds
12:10 PM 21.2 °F 6.0 °F 17.6 °F 86% 29.80 in 10.0 mi SW 19.6 mph 25.3 mph 0.00 in   Scattered Clouds
12:30 PM 23.0 °F 8.3 °F 17.6 °F 80% 29.79 in 10.0 mi SW 19.6 mph 26.5 mph 0.00 in   Clear
12:50 PM 23.0 °F 8.3 °F 19.4 °F 86% 29.78 in 10.0 mi SSW 19.6 mph 24.2 mph 0.00 in   Clear
1:10 PM 23.0 °F 7.6 °F 19.4 °F 86% 29.76 in 9.0 mi SSW 21.9 mph 26.5 mph 0.00 in   Clear
1:30 PM 23.0 °F 8.0 °F 19.4 °F 86% 29.76 in 10.0 mi SSW 20.7 mph 26.5 mph 0.00 in   Partly Cloudy
1:50 PM 24.8 °F 11.1 °F 19.4 °F 80% 29.75 in 10.0 mi SSW 18.4 mph 26.5 mph 0.00 in   Clear
2:10 PM 26.6 °F 11.4 °F 19.4 °F 74% 29.75 in 10.0 mi SW 25.3 mph 29.9 mph 0.00 in   Clear
2:30 PM 26.6 °F 12.0 °F 19.4 °F 74% 29.74 in 10.0 mi SSW 23.0 mph 26.5 mph 0.00 in   Clear
2:50 PM 26.6 °F 12.4 °F 19.4 °F 74% 29.74 in 9.0 mi SSW 21.9 mph 29.9 mph 0.00 in   Clear
3:10 PM 28.4 °F 14.4 °F 21.2 °F 74% 29.73 in 10.0 mi SSW 23.0 mph 27.6 mph 0.00 in   Clear
3:30 PM 28.4 °F 14.7 °F 21.2 °F 74% 29.73 in 10.0 mi SSW 21.9 mph 26.5 mph 0.00 in   Clear
3:50 PM 28.4 °F 15.1 °F 21.2 °F 74% 29.73 in 10.0 mi SSW 20.7 mph 27.6 mph 0.00 in   Clear
4:10 PM 28.4 °F 14.4 °F 21.2 °F 74% 29.72 in 10.0 mi SSW 23.0 mph 31.1 mph 0.00 in   Clear
4:30 PM 28.4 °F 14.4 °F 21.2 °F 74% 29.72 in 9.0 mi SW 23.0 mph 32.2 mph 0.00 in   Clear
4:50 PM 28.4 °F 15.4 °F 19.4 °F 69% 29.72 in 10.0 mi SSW 19.6 mph 25.3 mph 0.00 in   Clear
5:10 PM 28.4 °F 14.4 °F 19.4 °F 69% 29.70 in 10.0 mi SSW 23.0 mph 28.8 mph 0.00 in   Clear
5:30 PM 28.4 °F 15.8 °F 19.4 °F 69% 29.70 in 10.0 mi SSW 18.4 mph 27.6 mph 0.00 in   Clear
5:50 PM 28.4 °F 15.4 °F 19.4 °F 69% 29.70 in 10.0 mi SSW 19.6 mph 26.5 mph 0.00 in   Clear
6:10 PM 28.4 °F 14.7 °F 21.2 °F 74% 29.68 in 10.0 mi SSW 21.9 mph - 0.00 in   Clear
6:30 PM 30.2 °F 17.4 °F 21.2 °F 69% 29.67 in 10.0 mi SSW 20.7 mph 29.9 mph 0.00 in   Clear
6:50 PM 30.2 °F 17.4 °F 21.2 °F 69% 29.67 in 10.0 mi SSW 20.7 mph 26.5 mph 0.00 in   Clear
7:10 PM 30.2 °F 17.8 °F 21.2 °F 69% 29.67 in 10.0 mi SSW 19.6 mph 31.1 mph 0.00 in   Clear
7:30 PM 30.2 °F 17.4 °F 21.2 °F 69% 29.67 in 10.0 mi SSW 20.7 mph 29.9 mph 0.00 in   Clear
7:50 PM 30.2 °F 17.4 °F 21.2 °F 69% 29.68 in 10.0 mi SSW 20.7 mph 29.9 mph 0.00 in   Clear
8:10 PM 30.2 °F 17.1 °F 23.0 °F 75% 29.66 in 10.0 mi SSW 21.9 mph 31.1 mph 0.00 in   Clear
8:30 PM 32.0 °F 19.8 °F 23.0 °F 69% 29.65 in 10.0 mi SSW 20.7 mph 31.1 mph 0.00 in   Clear
8:50 PM 30.2 °F 16.5 °F 23.0 °F 75% 29.66 in 10.0 mi SSW 24.2 mph 29.9 mph 0.00 in   Clear
9:10 PM 30.2 °F 17.8 °F 23.0 °F 75% 29.66 in 10.0 mi SSW 19.6 mph 28.8 mph 0.00 in   Clear
9:30 PM 30.2 °F 17.8 °F 23.0 °F 75% 29.67 in 10.0 mi SSW 19.6 mph - 0.00 in   Clear
9:50 PM 30.2 °F 17.4 °F 23.0 °F 75% 29.66 in 10.0 mi SSW 20.7 mph 27.6 mph 0.00 in   Clear
10:10 PM 32.0 °F 20.5 °F 23.0 °F 69% 29.66 in 10.0 mi SSW 18.4 mph 29.9 mph 0.00 in   Clear
10:30 PM 32.0 °F 20.8 °F 23.0 °F 69% 29.65 in 10.0 mi SSW 17.3 mph - 0.00 in   Clear
10:50 PM 32.0 °F 20.1 °F 23.0 °F 69% 29.64 in 10.0 mi SSW 19.6 mph 27.6 mph 0.00 in   Clear
11:10 PM 32.0 °F 19.8 °F 23.0 °F 69% 29.63 in 10.0 mi SSW 20.7 mph 27.6 mph 0.00 in   Clear
11:30 PM 32.0 °F 19.8 °F 23.0 °F 69% 29.63 in 10.0 mi SSW 20.7 mph 26.5 mph 0.00 in   Clear
11:50 PM 32.0 °F 20.5 °F 23.0 °F 69% 29.62 in 10.0 mi SSW 18.4 mph 25.3 mph 0.00 in   Clear